AD5L Weather Reports


Display with metric or nautical units.
time (UTC)temp
F
wind
direction
speed
MPH
gust
MPH
rain 1hr
in
rain 24hr
in
rain mn
in
humidity
%
barometer
mb
20260901140322 85 135 0.0 1.0 0.00 0.00 0.00 79 1017.9
20260901135333 85 135 0.0 1.0 0.00 0.00 0.00 79 1018.0
20260901134324 84 135 0.0 1.0 0.00 0.00 0.00 80 1017.9
20260901133332 82 135 0.0 1.0 0.00 0.00 0.00 82 1018.0
20260901132322 82 184 0.0 1.0 0.00 0.00 0.00 84 1017.9
20260901131333 81 184 0.0 0.0 0.00 0.00 0.00 84 1017.7
20260901130345 79 184 0.0 0.0 0.00 0.00 0.00 88 1017.5
20260901125337 78 184 0.0 0.0 0.00 0.00 0.00 88 1017.3
20260901124348 77 184 0.0 0.0 0.00 0.00 0.00 90 1017.3
20260901123338 75 184 0.0 0.0 0.00 0.00 0.00 92 1017.1
20260901122349 75 184 0.0 0.0 0.00 0.00 0.00 93 1017.0
20260901121327 75 184 0.0 0.0 0.00 0.00 0.00 93 1017.0
20260901120332 75 184 0.0 0.0 0.00 0.00 0.00 92 1016.9
20260901115322 75 184 0.0 0.0 0.00 0.00 0.00 92 1016.9
20260901114332 76 184 0.0 0.0 0.00 0.00 0.00 91 1016.8
20260901113322 76 184 0.0 0.0 0.00 0.00 0.00 92 1016.8
20260901112332 76 184 0.0 0.0 0.00 0.00 0.00 90 1016.7
20260901111321 76 184 0.0 0.0 0.00 0.00 0.00 90 1016.7
20260901110332 77 184 0.0 0.0 0.00 0.00 0.00 89 1016.6
20260901105322 77 184 0.0 0.0 0.00 0.00 0.00 88 1016.5
20260901104333 77 184 0.0 0.0 0.00 0.00 0.00 89 1016.6
20260901103323 78 184 0.0 0.0 0.00 0.00 0.00 88 1016.6
20260901102334 78 217 0.0 2.0 0.00 0.00 0.00 87 1016.4
20260901101325 78 224 0.0 2.0 0.00 0.00 0.00 87 1016.4
20260901100335 78 210 0.0 3.0 0.00 0.00 0.00 87 1016.2
20260901095326 78 226 0.0 2.0 0.00 0.00 0.00 86 1016.4
20260901094337 78 226 0.0 1.0 0.00 0.00 0.00 86 1016.4
20260901093329 79 226 0.0 1.0 0.00 0.00 0.00 86 1016.5
20260901092336 79 226 0.0 1.0 0.00 0.00 0.00 85 1016.6
20260901091345 79 226 0.0 2.0 0.00 0.00 0.00 84 1016.6
20260901090335 79 150 0.0 1.0 0.00 0.00 0.00 83 1016.4
20260901085345 79 143 0.0 3.0 0.00 0.00 0.00 82 1016.5
20260901084328 80 157 0.0 3.0 0.00 0.00 0.00 82 1016.2
20260901083345 80 163 1.0 3.0 0.00 0.00 0.00 81 1016.2
20260901082327 80 200 0.0 3.0 0.00 0.00 0.00 81 1016.2
20260901081338 80 162 0.0 2.0 0.00 0.00 0.00 80 1016.2
20260901080329 80 160 0.0 2.0 0.00 0.00 0.00 80 1016.2
20260901075336 81 153 1.0 3.0 0.00 0.00 0.00 79 1016.4
20260901074326 81 146 0.0 3.0 0.00 0.00 0.00 79 1016.3
20260901073336 81 153 1.0 3.0 0.00 0.00 0.00 79 1016.4
20260901072340 81 127 0.0 2.0 0.00 0.00 0.00 79 1016.4
20260901071327 82 130 0.0 2.0 0.00 0.00 0.00 78 1016.5
20260901070338 82 142 0.0 4.0 0.00 0.00 0.00 78 1016.5
20260901065328 82 173 1.0 4.0 0.00 0.00 0.00 77 1016.7
20260901064340 83 160 1.0 5.0 0.00 0.00 0.00 76 1016.4
20260901063326 83 146 1.0 8.0 0.00 0.00 0.00 75 1016.3
20260901062337 83 155 2.0 7.0 0.00 0.00 0.00 75 1016.0
20260901061329 83 114 3.0 8.0 0.00 0.00 0.00 74 1016.1
20260901060340 84 155 3.0 7.0 0.00 0.00 0.00 73 1016.0
20260901055330 84 134 3.0 7.0 0.00 0.00 0.00 73 1016.0
20260901054340 84 160 3.0 7.0 0.00 0.00 0.00 72 1015.9
20260901053332 84 119 2.0 7.0 0.00 0.00 0.00 71 1015.8
20260901052342 84 159 2.0 6.0 0.00 0.00 0.00 71 1015.8
20260901051324 85 128 4.0 8.0 0.00 0.00 0.00 70 1015.6
20260901050343 85 145 4.0 7.0 0.00 0.00 0.00 70 1015.7
20260901045325 85 130 3.0 8.0 0.00 0.00 0.00 69 1015.6
20260901044336 86 141 3.0 9.0 0.00 0.00 0.00 68 1015.6
20260901043327 86 165 5.0 9.0 0.00 0.00 0.00 67 1015.5
20260901042339 86 125 3.0 8.0 0.00 0.00 0.00 67 1015.5
20260901041328 86 152 3.0 10.0 0.00 0.00 0.00 66 1015.4
20260901040339 87 173 5.0 10.0 0.00 0.00 0.00 66 1015.4
20260901035329 87 167 5.0 14.0 0.00 0.00 0.00 64 1015.4
20260901034336 87 146 4.0 11.0 0.00 0.00 0.00 63 1015.3
20260901033327 87 167 4.0 10.0 0.00 0.00 0.00 62 1015.3
20260901032334 87 94 3.0 8.0 0.00 0.00 0.00 60 1015.2
20260901031325 85 69 1.0 3.0 0.00 0.00 0.00 59 1015.2
20260901030336 85 126 0.0 1.0 0.00 0.00 0.00 59 1015.1
20260901025327 85 126 0.0 1.0 0.00 0.00 0.00 58 1014.9
20260901024338 86 126 0.0 1.0 0.00 0.00 0.00 57 1015.0
20260901023330 86 126 0.0 1.0 0.00 0.00 0.00 56 1014.7
20260901022339 87 125 0.0 1.0 0.00 0.00 0.00 55 1014.6
20260901021321 87 126 0.0 1.0 0.00 0.00 0.00 55 1014.5
20260901020341 88 125 0.0 1.0 0.00 0.00 0.00 54 1014.3
20260901015323 89 125 0.0 1.0 0.00 0.00 0.00 53 1014.2
20260901014333 90 126 0.0 1.0 0.00 0.00 0.00 51 1014.1
20260901013323 90 120 0.0 1.0 0.00 0.00 0.00 50 1014.1
20260901012333 91 120 0.0 3.0 0.00 0.00 0.00 50 1014.1
20260901011323 92 92 1.0 5.0 0.00 0.00 0.00 48 1014.0
20260901010335 92 93 2.0 7.0 0.00 0.00 0.00 48 1013.9
20260901005326 93 93 3.0 5.0 0.00 0.00 0.00 47 1013.8
20260901004333 94 91 3.0 6.0 0.00 0.00 0.00 45 1013.9
20260901003322 95 106 3.0 9.0 0.00 0.00 0.00 44 1013.9
20260901002332 96 71 3.0 6.0 0.00 0.00 0.00 43 1013.8
20260901001322 96 70 3.0 6.0 0.00 0.00 0.00 43 1013.7
20260901000335 96 94 2.0 6.0 0.00 0.00 0.00 45 1013.7
20260831235324 96 94 4.0 9.0 0.00 0.00 0.00 45 1013.7
20260831234335 97 70 2.0 9.0 0.00 0.00 0.00 44 1013.7
20260831233326 97 118 5.0 9.0 0.00 0.00 0.00 43 1013.8
20260831232333 98 75 8.0 12.0 0.00 0.00 0.00 43 1013.8
20260831231344 99 88 2.0 6.0 0.00 0.00 0.00 42 1013.9
20260831230335 99 131 3.0 9.0 0.00 0.00 0.00 41 1013.8
20260831225345 99 70 5.0 9.0 0.00 0.00 0.00 40 1013.9
20260831224327 99 128 3.0 9.0 0.00 0.00 0.00 41 1014.0
20260831223347 99 159 3.0 9.0 0.00 0.00 0.00 40 1014.0
20260831222329 98 112 3.0 9.0 0.00 0.00 0.00 41 1014.1
20260831221340 98 127 2.0 9.0 0.00 0.00 0.00 43 1014.2
20260831220331 97 152 3.0 8.0 0.00 0.00 0.00 44 1014.2
20260831215322 97 70 5.0 11.0 0.00 0.00 0.00 43 1014.3
20260831214332 98 82 6.0 10.0 0.00 0.00 0.00 45 1014.4
20260831213323 98 131 3.0 10.0 0.00 0.00 0.00 45 1014.5
20260831212333 98 196 3.0 9.0 0.00 0.00 0.00 43 1014.8
20260831211324 97 113 4.0 12.0 0.00 0.00 0.00 44 1015.0
20260831210335 99 96 5.0 16.0 0.00 0.00 0.00 43 1015.1
20260831205325 100 149 4.0 11.0 0.00 0.00 0.00 42 1015.1
20260831204336 99 158 2.0 9.0 0.00 0.00 0.00 45 1015.2
20260831203327 98 131 3.0 8.0 0.00 0.00 0.00 44 1015.5
20260831202338 99 113 5.0 13.0 0.00 0.00 0.00 45 1015.8
20260831201349 98 159 5.0 11.0 0.00 0.00 0.00 46 1016.0
20260831200340 96 87 2.0 6.0 0.00 0.00 0.00 47 1016.0
20260831195322 98 113 5.0 12.0 0.00 0.00 0.00 45 1016.1
20260831194343 98 118 4.0 9.0 0.00 0.00 0.00 46 1016.4
20260831193323 98 254 4.0 12.0 0.00 0.00 0.00 46 1016.4
20260831192333 97 130 5.0 12.0 0.00 0.00 0.00 47 1016.4
20260831191325 97 63 5.0 12.0 0.00 0.00 0.00 47 1016.8
20260831190331 97 82 4.0 9.0 0.00 0.00 0.00 49 1016.9
20260831185321 96 116 3.0 11.0 0.00 0.00 0.00 50 1016.8
20260831184332 96 160 6.0 13.0 0.00 0.00 0.00 50 1017.0
20260831183323 95 63 2.0 10.0 0.00 0.00 0.00 53 1017.0
20260831182334 95 162 5.0 11.0 0.00 0.00 0.00 51 1017.1
20260831181324 95 163 2.0 10.0 0.00 0.00 0.00 52 1017.2
20260831180335 95 97 3.0 10.0 0.00 0.00 0.00 53 1017.3
20260831175322 94 79 4.0 9.0 0.00 0.00 0.00 55 1017.5
20260831174332 95 156 2.0 10.0 0.00 0.00 0.00 55 1017.6
20260831173322 94 77 3.0 13.0 0.00 0.00 0.00 56 1017.7
20260831172333 94 107 3.0 8.0 0.00 0.00 0.00 57 1017.8
20260831171345 94 154 1.0 6.0 0.00 0.00 0.00 58 1018.0
20260831170335 93 212 2.0 9.0 0.00 0.00 0.00 59 1018.0
20260831165346 92 106 5.0 8.0 0.00 0.00 0.00 58 1017.9
20260831164328 92 113 1.0 7.0 0.00 0.00 0.00 62 1018.1
20260831163346 92 122 3.0 7.0 0.00 0.00 0.00 62 1018.0
20260831162328 91 149 2.0 9.0 0.00 0.00 0.00 64 1018.0
20260831161348 91 148 2.0 8.0 0.00 0.00 0.00 66 1018.0
20260831160328 90 143 4.0 10.0 0.00 0.00 0.00 67 1018.1
20260831155339 89 124 3.0 7.0 0.00 0.00 0.00 70 1018.1
20260831154330 89 240 3.0 9.0 0.00 0.00 0.00 71 1018.0
20260831153341 89 102 3.0 7.0 0.00 0.00 0.00 72 1017.9
20260831152332 88 147 2.0 6.0 0.00 0.00 0.00 73 1018.0
20260831151341 87 129 2.0 12.0 0.00 0.00 0.00 75 1017.9
20260831150329 87 169 1.0 7.0 0.00 0.00 0.00 75 1017.8
20260831145327 87 136 3.0 9.0 0.00 0.00 0.00 75 1017.6
20260831144338 86 182 3.0 8.0 0.00 0.00 0.00 77 1017.6
20260831143329 86 226 5.0 8.0 0.00 0.00 0.00 78 1017.5
20260831142340 86 148 1.0 6.0 0.00 0.00 0.00 78 1017.5
20260831141332 85 192 2.0 8.0 0.00 0.00 0.00 80 1017.4